Location: Pedimozza
(42.0500°N, 9.3500°E)
Time: 20:28:00
(UTC+00:00)

Cosmos 2219 Rocket - Pass Details

Date: 19 August 2019
Orbit: 829 x 845 km, 71.0° (Epoch: 22 October)

Event Time Altitude Azimuth Distance (km) Brightness Sun altitude
Rises 23:18:59 0° 346° (NNW) 3,383 6.3 -35.3°
Reaches altitude 10° 23:22:02 10° 2° (N) 2,444 5.4 -35.3°
Maximum altitude 23:26:15 21° 51° (NE) 1,769 4.1 -35.3°
Enters shadow 23:26:41 21° 58° (ENE) 1,777 4.1 -35.3°
